Regional Weather Roundup
Issued by NWS

Home | Current Version | Previous Version | Graphics & Text | Print | Product List | Glossary Off
Versions: 1 2 3 4 5 6 7 8 9 10 11 12 13 14 15 16 17 18 19 20 21 22 23 24 25 26 27 28 29 30 31 32 33 34 35 36 37 38 39 40 41 42 43 44 45 46 47 48 49 50

000
ASUS43 KLSX 280857
RWRMO

WEATHER SUMMARY FOR MISSOURI
NATIONAL WEATHER SERVICE SPRINGFIELD MO
400 AM CDT SUN AUG 28 2016

NOTE: "FAIR" INDICATES FEW OR NO CLOUDS BELOW 12,000 FEET WITH NO
       SIGNIFICANT WEATHER AND/OR OBSTRUCTIONS TO VISIBILITY.
       CURRENT SKY AND/OR WEATHER CONDITIONS ARE NOT AVAILABLE FOR
       CHILLICOTHE AND FARMINGTON.

MOZ001>031-035>038-043-044-053-054-281000-
...NORTHERN AND WESTERN MISSOURI...

CITY           SKY/WX    TMP DP  RH WIND       PRES   REMARKS
KANSAS CTY INT PTCLDY    73  68  84 SE6       30.07S
LEE`S SUMMIT   CLEAR     74  70  87 S6        30.09R
ST JOSEPH      MOCLDY    69  67  93 CALM      30.07S
KIRKSVILLE     CLEAR     70  68  94 CALM      30.10F FOG

$$
MOZ066>068-077>081-088>096-101>105-281000-
...SOUTHWEST MISSOURI...

CITY           SKY/WX    TMP DP  RH WIND       PRES   REMARKS
SPRINGFIELD    PTCLDY    74  69  85 SE6       30.09S
JOPLIN         CLEAR     72  70  93 E3        30.08R

$$
MOZ032>034-039>042-045>050-055>058-069>072-281000-
...CENTRAL MISSOURI...

CITY           SKY/WX    TMP DP  RH WIND       PRES   REMARKS
COLUMBIA       NOT AVBL
JEFFERSON CITY CLOUDY    72  71  97 SE5       30.08F
ROLLA          PTCLDY    72  70  93 S6        30.11S
SEDALIA        CLEAR     71  69  93 S6        30.09S

$$
MOZ051-052-059>065-281000-
...EAST CENTRAL MISSOURI...

CITY           SKY/WX    TMP DP  RH WIND       PRES   REMARKS
ST LOUIS INTL  MOCLDY    77  71  82 SE6       30.11F
SPIRIT OF STL  CLEAR     72  72 100 CALM      30.09F FOG

$$
MOZ072>076-082>087-097>100-106>115-281000-
...SOUTH CENTRAL AND SOUTHEAST MISSOURI...

CITY           SKY/WX    TMP DP  RH WIND       PRES   REMARKS
CAPE GIRARDEAU FOG       70  70 100 CALM      30.09R VSB 1/2
FARMINGTON     PTCLDY    70  70 100 CALM      30.13S FOG
POPLAR BLUFF   CLEAR     72  70  93 CALM      30.09R
WEST PLAINS    FOG       68  65  90 CALM      30.14S VSB 1

$$



USA.gov is the U.S. government's official web portal to all federal, state and local government web resources and services.